| time (UTC) | temp F | wind direction | speed MPH | gust MPH | rain 1hr in | rain 24hr in | rain mn in | humidity % | barometer mb |
| 20260510044245 | 61 | 131 | 4.0 | 9.0 | 0.21 | 0.22 | 0.22 | 89 | 867.5 |
| 20260510044207 | 62 | 80 | 4.0 | 10.0 | 0.16 | 0.17 | 0.17 | 88 | 867.5 |
| 20260510042245 | 62 | 33 | 5.0 | 13.0 | 0.12 | 0.13 | 0.13 | 87 | 867.6 |
| 20260510041245 | 63 | 48 | 7.0 | 13.0 | 0.05 | 0.05 | 0.05 | 84 | 867.6 |
| 20260510040243 | 65 | 50 | 8.0 | 12.0 | 0.02 | 0.02 | 0.02 | 77 | 867.8 |
| 20260510035243 | 66 | 43 | 7.0 | 14.0 | 0.00 | 0.01 | 0.01 | 78 | 867.9 |
| 20260510034242 | 67 | 102 | 6.0 | 12.0 | 0.01 | 0.01 | 0.01 | 75 | 867.9 |
| 20260510033243 | 67 | 198 | 8.0 | 13.0 | 0.01 | 0.01 | 0.01 | 73 | 868.0 |
| 20260510032243 | 68 | 52 | 7.0 | 12.0 | 0.00 | 0.00 | 0.00 | 69 | 868.0 |
| 20260510031243 | 70 | 352 | 3.0 | 13.0 | 0.00 | 0.00 | 0.00 | 64 | 868.1 |
| 20260510030727 | 73 | 163 | 11.0 | 18.0 | 0.00 | 0.00 | 0.00 | 60 | 868.2 |
| 20260510025727 | 77 | 30 | 4.0 | 8.0 | 0.00 | 0.00 | 0.00 | 50 | 868.9 |
| 20260510024243 | 76 | 359 | 6.0 | 15.0 | 0.00 | 0.00 | 0.00 | 47 | 868.9 |
| 20260510023728 | 73 | 354 | 8.0 | 19.0 | 0.00 | 0.00 | 0.00 | 55 | 868.7 |
| 20260510022244 | 73 | 226 | 7.0 | 18.0 | 0.00 | 0.00 | 0.00 | 57 | 868.5 |
| 20260510021244 | 75 | 218 | 11.0 | 20.0 | 0.00 | 0.00 | 0.00 | 55 | 868.6 |
| 20260510020241 | 76 | 157 | 6.0 | 16.0 | 0.00 | 0.00 | 0.00 | 53 | 868.8 |
| 20260510015241 | 77 | 194 | 12.0 | 20.0 | 0.00 | 0.00 | 0.00 | 49 | 868.9 |
| 20260510014239 | 77 | 234 | 8.0 | 13.0 | 0.00 | 0.00 | 0.00 | 51 | 868.8 |
| 20260510013239 | 77 | 232 | 9.0 | 14.0 | 0.00 | 0.00 | 0.00 | 50 | 868.9 |
| 20260510012721 | 78 | 213 | 14.0 | 24.0 | 0.00 | 0.00 | 0.00 | 52 | 868.9 |
| 20260510011716 | 78 | 225 | 16.0 | 27.0 | 0.00 | 0.00 | 0.00 | 51 | 868.9 |
| 20260510010240 | 78 | 243 | 15.0 | 22.0 | 0.00 | 0.00 | 0.00 | 55 | 868.9 |
| 20260510005239 | 80 | 249 | 10.0 | 22.0 | 0.00 | 0.00 | 0.00 | 49 | 869.0 |
| 20260510004240 | 79 | 263 | 4.0 | 9.0 | 0.00 | 0.00 | 0.00 | 48 | 869.0 |
| 20260510003239 | 80 | 227 | 4.0 | 9.0 | 0.00 | 0.00 | 0.00 | 48 | 869.1 |
| 20260510002236 | 80 | 212 | 5.0 | 9.0 | 0.00 | 0.00 | 0.00 | 49 | 869.1 |
| 20260510001237 | 81 | 109 | 4.0 | 9.0 | 0.00 | 0.00 | 0.00 | 48 | 869.1 |
| 20260510000236 | 81 | 215 | 3.0 | 12.0 | 0.00 | 0.00 | 0.00 | 46 | 869.2 |
| 20260509235237 | 82 | 306 | 4.0 | 10.0 | 0.00 | 0.00 | 0.00 | 44 | 869.2 |
| 20260509234237 | 82 | 274 | 4.0 | 9.0 | 0.00 | 0.00 | 0.00 | 43 | 869.3 |
| 20260509233237 | 83 | 319 | 4.0 | 13.0 | 0.00 | 0.00 | 0.00 | 43 | 869.3 |
| 20260509232235 | 83 | 160 | 5.0 | 13.0 | 0.00 | 0.00 | 0.00 | 41 | 869.4 |
| 20260509230236 | 85 | 284 | 4.0 | 11.0 | 0.00 | 0.00 | 0.00 | 41 | 869.5 |
| 20260509225236 | 86 | 199 | 3.0 | 7.0 | 0.00 | 0.00 | 0.00 | 38 | 869.7 |
| 20260509225205 | 86 | 257 | 6.0 | 11.0 | 0.00 | 0.00 | 0.00 | 39 | 869.7 |
| 20260509223722 | 87 | 183 | 5.0 | 16.0 | 0.00 | 0.00 | 0.00 | 40 | 869.8 |
| 20260509222710 | 87 | 225 | 5.0 | 15.0 | 0.00 | 0.00 | 0.00 | 40 | 869.8 |
| 20260509221233 | 86 | 338 | 6.0 | 15.0 | 0.00 | 0.00 | 0.00 | 40 | 869.8 |
| 20260509220232 | 87 | 208 | 5.0 | 13.0 | 0.00 | 0.00 | 0.00 | 41 | 869.7 |
| 20260509220144 | 87 | 212 | 5.0 | 14.0 | 0.00 | 0.00 | 0.00 | 41 | 869.8 |
| 20260509214232 | 87 | 250 | 4.0 | 13.0 | 0.00 | 0.02 | 0.00 | 41 | 869.8 |
| 20260509213232 | 87 | 196 | 6.0 | 13.0 | 0.00 | 0.06 | 0.00 | 40 | 869.8 |
| 20260509212705 | 87 | 193 | 5.0 | 15.0 | 0.00 | 0.11 | 0.00 | 39 | 869.8 |
| 20260509212208 | 87 | 231 | 6.0 | 15.0 | 0.00 | 0.11 | 0.00 | 39 | 869.8 |
| 20260509210713 | 86 | 237 | 6.0 | 13.0 | 0.00 | 0.11 | 0.00 | 38 | 869.7 |
| 20260509205232 | 86 | 225 | 7.0 | 18.0 | 0.00 | 0.11 | 0.00 | 38 | 869.7 |
| 20260509204232 | 86 | 237 | 8.0 | 14.0 | 0.00 | 0.11 | 0.00 | 35 | 869.7 |
| 20260509203228 | 86 | 235 | 8.0 | 14.0 | 0.00 | 0.11 | 0.00 | 35 | 869.7 |
| 20260509202228 | 86 | 223 | 6.0 | 13.0 | 0.00 | 0.11 | 0.00 | 36 | 869.8 |
| 20260509201715 | 86 | 210 | 6.0 | 12.0 | 0.00 | 0.11 | 0.00 | 35 | 869.7 |
| 20260509200229 | 85 | 220 | 6.0 | 10.0 | 0.00 | 0.11 | 0.00 | 36 | 869.6 |
| 20260509195228 | 85 | 203 | 6.0 | 13.0 | 0.00 | 0.11 | 0.00 | 37 | 869.6 |
| 20260509194718 | 85 | 201 | 5.0 | 16.0 | 0.00 | 0.11 | 0.00 | 36 | 869.7 |
| 20260509193229 | 84 | 212 | 8.0 | 15.0 | 0.00 | 0.11 | 0.00 | 35 | 869.6 |
| 20260509192227 | 83 | 207 | 6.0 | 16.0 | 0.00 | 0.11 | 0.00 | 38 | 869.5 |
| 20260509191227 | 83 | 211 | 9.0 | 14.0 | 0.00 | 0.11 | 0.00 | 38 | 869.5 |
| 20260509190702 | 84 | 217 | 5.0 | 16.0 | 0.00 | 0.11 | 0.00 | 36 | 869.5 |
| 20260509185227 | 82 | 185 | 8.0 | 13.0 | 0.00 | 0.11 | 0.00 | 41 | 869.4 |
| 20260509184228 | 82 | 211 | 6.0 | 13.0 | 0.00 | 0.11 | 0.00 | 39 | 869.4 |
| 20260509183228 | 82 | 214 | 4.0 | 13.0 | 0.00 | 0.11 | 0.00 | 38 | 869.5 |
| 20260509182228 | 82 | 2 | 6.0 | 15.0 | 0.00 | 0.11 | 0.00 | 40 | 869.3 |
| 20260509181224 | 82 | 215 | 7.0 | 14.0 | 0.00 | 0.11 | 0.00 | 40 | 869.4 |
| 20260509180224 | 81 | 71 | 6.0 | 15.0 | 0.00 | 0.11 | 0.00 | 41 | 869.3 |
| 20260509175224 | 82 | 241 | 6.0 | 12.0 | 0.00 | 0.11 | 0.00 | 39 | 869.4 |
| 20260509174225 | 81 | 227 | 6.0 | 13.0 | 0.00 | 0.11 | 0.00 | 38 | 869.3 |
| 20260509173225 | 81 | 231 | 7.0 | 13.0 | 0.00 | 0.11 | 0.00 | 37 | 869.3 |
| 20260509172227 | 81 | 96 | 4.0 | 13.0 | 0.00 | 0.11 | 0.00 | 39 | 869.4 |
| 20260509171223 | 81 | 216 | 6.0 | 16.0 | 0.00 | 0.11 | 0.00 | 38 | 869.3 |
| 20260509170700 | 81 | 286 | 5.0 | 11.0 | 0.00 | 0.11 | 0.00 | 39 | 869.3 |
| 20260509165222 | 80 | 69 | 5.0 | 11.0 | 0.00 | 0.11 | 0.00 | 40 | 869.3 |
| 20260509164223 | 80 | 242 | 3.0 | 11.0 | 0.00 | 0.11 | 0.00 | 41 | 869.2 |
| 20260509163222 | 79 | 319 | 3.0 | 9.0 | 0.00 | 0.11 | 0.00 | 42 | 869.2 |
| 20260509162220 | 78 | 157 | 6.0 | 13.0 | 0.00 | 0.11 | 0.00 | 41 | 869.1 |
| 20260509161218 | 77 | 216 | 6.0 | 12.0 | 0.00 | 0.11 | 0.00 | 43 | 869.1 |
| 20260509160219 | 77 | 226 | 5.0 | 12.0 | 0.00 | 0.11 | 0.00 | 44 | 869.0 |
| 20260509155219 | 77 | 205 | 5.0 | 11.0 | 0.00 | 0.11 | 0.00 | 45 | 869.0 |
| 20260509154219 | 76 | 232 | 5.0 | 11.0 | 0.00 | 0.11 | 0.00 | 45 | 868.9 |
| 20260509153659 | 76 | 219 | 4.0 | 9.0 | 0.00 | 0.11 | 0.00 | 47 | 868.9 |
| 20260509153148 | 75 | 197 | 3.0 | 7.0 | 0.00 | 0.11 | 0.00 | 47 | 868.9 |
| 20260509151214 | 75 | 200 | 3.0 | 8.0 | 0.00 | 0.11 | 0.00 | 48 | 868.8 |
| 20260509145653 | 73 | 216 | 5.0 | 7.0 | 0.00 | 0.11 | 0.00 | 52 | 868.6 |
| 20260509144215 | 73 | 220 | 4.0 | 7.0 | 0.00 | 0.11 | 0.00 | 49 | 868.6 |
| 20260509143215 | 74 | 195 | 2.0 | 6.0 | 0.00 | 0.11 | 0.00 | 52 | 868.6 |
| 20260509142215 | 74 | 0 | 1.0 | 4.0 | 0.00 | 0.11 | 0.00 | 51 | 868.7 |
| 20260509141215 | 73 | 140 | 1.0 | 4.0 | 0.00 | 0.11 | 0.00 | 57 | 868.7 |
| 20260509140214 | 72 | 42 | 2.0 | 3.0 | 0.00 | 0.11 | 0.00 | 57 | 868.6 |
| 20260509135214 | 71 | 0 | 1.0 | 5.0 | 0.00 | 0.11 | 0.00 | 59 | 868.6 |
| 20260509134215 | 68 | 0 | 2.0 | 4.0 | 0.00 | 0.11 | 0.00 | 66 | 868.2 |
| 20260509133214 | 67 | 320 | 1.0 | 4.0 | 0.00 | 0.11 | 0.00 | 72 | 868.1 |
| 20260509132655 | 65 | 358 | 1.0 | 3.0 | 0.00 | 0.11 | 0.00 | 74 | 868.0 |
| 20260509131215 | 62 | 0 | 0.0 | 3.0 | 0.00 | 0.11 | 0.00 | 86 | 867.8 |
| 20260509130650 | 58 | 280 | 1.0 | 3.0 | 0.00 | 0.11 | 0.00 | 88 | 867.4 |
| 20260509125211 | 57 | 236 | 0.0 | 2.0 | 0.00 | 0.11 | 0.00 | 87 | 867.2 |
| 20260509124211 | 56 | 250 | 1.0 | 3.0 | 0.00 | 0.11 | 0.00 | 88 | 867.1 |
| 20260509123212 | 55 | 0 | 1.0 | 4.0 | 0.00 | 0.11 | 0.00 | 92 | 867.1 |
| 20260509122211 | 53 | 24 | 2.0 | 4.0 | 0.00 | 0.11 | 0.00 | 93 | 866.9 |
| 20260509121210 | 53 | 359 | 1.0 | 3.0 | 0.00 | 0.11 | 0.00 | 94 | 866.8 |
| 20260509120647 | 53 | 0 | 2.0 | 3.0 | 0.00 | 0.11 | 0.00 | 94 | 866.8 |
| 20260509115211 | 52 | 265 | 3.0 | 5.0 | 0.00 | 0.11 | 0.00 | 96 | 866.9 |
| 20260509114202 | 51 | 232 | 4.0 | 6.0 | 0.00 | 0.11 | 0.00 | 95 | 866.7 |
| 20260509113202 | 51 | 243 | 4.0 | 6.0 | 0.00 | 0.11 | 0.00 | 93 | 866.7 |
| 20260509112158 | 51 | 259 | 2.0 | 4.0 | 0.00 | 0.11 | 0.00 | 92 | 866.7 |
| 20260509111144 | 53 | 40 | 2.0 | 4.0 | 0.00 | 0.11 | 0.00 | 92 | 866.8 |
| 20260509110617 | 53 | 340 | 2.0 | 6.0 | 0.00 | 0.11 | 0.00 | 92 | 866.8 |
| 20260509105132 | 53 | 271 | 4.0 | 7.0 | 0.00 | 0.11 | 0.00 | 91 | 866.8 |
| 20260509104130 | 53 | 251 | 2.0 | 5.0 | 0.00 | 0.11 | 0.00 | 91 | 866.9 |
| 20260509103129 | 54 | 344 | 3.0 | 5.0 | 0.00 | 0.11 | 0.00 | 89 | 866.9 |
| 20260509102130 | 54 | 328 | 2.0 | 3.0 | 0.00 | 0.11 | 0.00 | 89 | 867.0 |
| 20260509101130 | 54 | 328 | 2.0 | 5.0 | 0.00 | 0.11 | 0.00 | 89 | 867.0 |
| 20260509100121 | 54 | 275 | 4.0 | 5.0 | 0.00 | 0.11 | 0.00 | 88 | 866.9 |
| 20260509095115 | 54 | 312 | 2.0 | 4.0 | 0.00 | 0.11 | 0.00 | 86 | 866.9 |
| 20260509094115 | 55 | 308 | 1.0 | 2.0 | 0.00 | 0.11 | 0.00 | 84 | 867.0 |
| 20260509093115 | 54 | 8 | 3.0 | 4.0 | 0.00 | 0.11 | 0.00 | 85 | 867.0 |
| 20260509092114 | 55 | 355 | 2.0 | 4.0 | 0.00 | 0.11 | 0.00 | 82 | 867.0 |
| 20260509091115 | 55 | 9 | 0.0 | 2.0 | 0.00 | 0.11 | 0.00 | 82 | 867.0 |
| 20260509090114 | 56 | 335 | 1.0 | 3.0 | 0.00 | 0.11 | 0.00 | 80 | 867.0 |
| 20260509085114 | 56 | 0 | 1.0 | 2.0 | 0.00 | 0.11 | 0.00 | 81 | 867.1 |
| 20260509084101 | 57 | 270 | 2.0 | 3.0 | 0.00 | 0.11 | 0.00 | 80 | 867.1 |
| 20260509083102 | 58 | 2 | 2.0 | 3.0 | 0.00 | 0.11 | 0.00 | 79 | 867.2 |
| 20260509082102 | 58 | 321 | 2.0 | 4.0 | 0.00 | 0.11 | 0.00 | 76 | 867.3 |
| 20260509081102 | 57 | 21 | 2.0 | 4.0 | 0.00 | 0.11 | 0.00 | 80 | 867.2 |
| 20260509075048 | 58 | 285 | 2.0 | 3.0 | 0.00 | 0.11 | 0.00 | 76 | 867.3 |
| 20260509074056 | 58 | 319 | 2.0 | 5.0 | 0.00 | 0.11 | 0.00 | 73 | 867.3 |
| 20260509073048 | 59 | 4 | 2.0 | 5.0 | 0.00 | 0.11 | 0.00 | 72 | 867.3 |
| 20260509072047 | 60 | 280 | 2.0 | 2.0 | 0.00 | 0.11 | 0.00 | 71 | 867.4 |
| 20260509071048 | 60 | 225 | 1.0 | 2.0 | 0.00 | 0.11 | 0.00 | 69 | 867.4 |
| 20260509070047 | 60 | 286 | 1.0 | 2.0 | 0.00 | 0.11 | 0.00 | 67 | 867.4 |
| 20260509065033 | 60 | 250 | 0.0 | 2.0 | 0.00 | 0.11 | 0.00 | 66 | 867.5 |
| 20260509064033 | 61 | 0 | 0.0 | 0.0 | 0.00 | 0.11 | 0.00 | 66 | 867.5 |
| 20260509063017 | 61 | 0 | 0.0 | 1.0 | 0.00 | 0.11 | 0.00 | 64 | 867.5 |
| 20260509062018 | 62 | 227 | 0.0 | 2.0 | 0.00 | 0.11 | 0.00 | 62 | 867.5 |
| 20260509061017 | 62 | 0 | 0.0 | 1.0 | 0.00 | 0.11 | 0.00 | 60 | 867.6 |
| 20260509060453 | 62 | 47 | 1.0 | 2.0 | 0.00 | 0.11 | 0.00 | 59 | 867.6 |
| 20260509055017 | 63 | 0 | 0.0 | 0.0 | 0.00 | 0.11 | 0.00 | 59 | 867.6 |
| 20260509054017 | 63 | 0 | 0.0 | 0.0 | 0.00 | 0.11 | 0.00 | 58 | 867.6 |
| 20260509053004 | 63 | 0 | 0.0 | 2.0 | 0.00 | 0.11 | 0.00 | 57 | 867.7 |
| 20260509052005 | 64 | 0 | 1.0 | 3.0 | 0.00 | 0.11 | 0.00 | 56 | 867.7 |
| 20260509051004 | 64 | 116 | 1.0 | 3.0 | 0.00 | 0.11 | 0.00 | 55 | 867.7 |
| 20260509050429 | 65 | 141 | 0.0 | 4.0 | 0.00 | 0.11 | 0.11 | 54 | 867.8 |
| 20260509044951 | 66 | 133 | 2.0 | 4.0 | 0.00 | 0.11 | 0.11 | 52 | 867.8 |